Weather in O-Shynaa

Russia / Tyva Republic     50°39′24″N   93°44′38″E
temp.,
°C
wind,
m/s
gust,
m/s
humid.,
%
clouds,
%
prec.,
mm/h
press.,
hPa
HPBL,
m
21 january, fri
fri2101:00−18nnw1194100 0.9 103538
04:00−18nnw1193100 0.1 103424
07:00−17n1291100 0.2 103333
10:00−15n0290100 0.1 103272
13:00−14s1188100 0.3 1031152
16:00−14ssw1192100 0.3 1030108
19:00−15w019698 0.5 103139
22:00−17n119383 0.2 103110
22 january, sat
sat2201:00−17n119195 0.3 103211
04:00−18n119077 0.1 103210
07:00−18nne119084 0.1 103310
10:00−17ene019183 0.1 103343
13:00−15s119380 0.1 1033133
16:00−16ssw119985 0.1 103418
19:00−18n119297 0.1 10359
22:00−18nne119194 0.1 103710
23 january, sun
sun2301:00−18nne119175 0.1 103711
04:00−19nne119382 0.1 103710
07:00−21n229042 0.1 10399
10:00−19n119165 0.0 104011
13:00−17s119692 0.0 1038129
16:00−19w119983 0.0 10399
19:00−21n229360 0.0 104110
22:00−22n229487 0.0 104310
24 january, mon
mon2401:00−23n229588 0.1 104311
04:00−24n229788 0.0 104310
07:00−24n229789 0.1 104410
10:00−23n219788 0.1 104320
13:00−20s109473 0.1 1041188
16:00−21sw119887 0.0 104115
19:00−23n2290100 0.0 10439
22:00−24n2193100 0.0 10439
25 january, tue
tue2501:00−24nne1189100 0.0 104311
04:00−24nne2288100 0.0 104312
07:00−24nne2291100 0.0 104314
10:00−23nne119390 0.0 104438
13:00−21s119577 0.0 1042112
16:00−22ssw009839 0.0 104236
19:00−25n229039 0.1 104410
22:00−26n228943 0.0 104510